Time,TemperatureF,DewpointF,PressureIn,WindDirection,WindDirectionDegrees,WindSpeedMPH,WindSpeedGustMPH,Humidity,HourlyPrecipIn,Conditions,Clouds,dailyrainin,SoftwareType,DateUTC
2013-10-04 00:31:00,63.1,59.5,28.02,ENE,68,0.0,0.0,88,0.00,,---,0.00,VWS V14.01,2013-10-04 04:31:00,
2013-10-04 00:32:00,63.1,59.5,28.02,ENE,68,0.0,0.0,88,0.00,,---,0.00,VWS V14.01,2013-10-04 04:32:00,
2013-10-04 00:34:00,63.1,59.5,28.02,ENE,68,0.0,0.0,88,0.00,,---,0.00,VWS V14.01,2013-10-04 04:34:00,
2013-10-04 00:35:00,63.1,59.5,28.02,ENE,68,0.0,0.0,88,0.00,,---,0.00,VWS V14.01,2013-10-04 04:35:00,
2013-10-04 00:39:00,63.1,59.5,28.02,ENE,68,0.0,0.0,88,0.00,,---,0.00,VWS V14.01,2013-10-04 04:39:00,
2013-10-04 00:42:00,63.1,59.5,28.02,ENE,68,0.0,0.0,88,0.00,,---,0.00,VWS V14.01,2013-10-04 04:42:00,
2013-10-04 00:43:00,63.1,59.5,28.02,ENE,68,0.0,0.0,88,0.00,,---,0.00,VWS V14.01,2013-10-04 04:43:00,
2013-10-04 00:44:00,63.1,59.5,28.02,ENE,68,0.0,0.0,88,0.00,,---,0.00,VWS V14.01,2013-10-04 04:44:00,
2013-10-04 00:46:00,63.1,59.5,28.02,ENE,68,0.0,0.0,88,0.00,,---,0.00,VWS V14.01,2013-10-04 04:46:00,
2013-10-04 00:51:00,63.1,59.5,28.02,ENE,68,0.0,0.0,88,0.00,,---,0.00,VWS V14.01,2013-10-04 04:51:00,
2013-10-04 00:56:00,63.1,59.8,28.02,ENE,68,0.0,0.0,89,0.00,,---,0.00,VWS V14.01,2013-10-04 04:56:00,
2013-10-04 00:58:00,63.1,59.5,28.02,ENE,68,0.0,0.0,88,0.00,,---,0.00,VWS V14.01,2013-10-04 04:58:00,
2013-10-04 01:00:00,63.1,59.5,28.02,ENE,68,0.0,0.0,88,0.00,,---,0.00,VWS V14.01,2013-10-04 05:00:00,
2013-10-04 01:02:00,63.1,59.5,28.02,ENE,68,0.0,0.0,88,0.00,,---,0.00,VWS V14.01,2013-10-04 05:02:00,
2013-10-04 01:05:00,63.1,59.8,28.02,ENE,68,0.0,0.0,89,0.00,,---,0.00,VWS V14.01,2013-10-04 05:05:00,
2013-10-04 01:08:00,63.1,59.8,28.02,ENE,68,0.0,0.0,89,0.00,,---,0.00,VWS V14.01,2013-10-04 05:08:00,
2013-10-04 01:13:00,63.1,59.8,28.02,ENE,68,0.0,0.0,89,0.00,,---,0.00,VWS V14.01,2013-10-04 05:13:00,
2013-10-04 01:14:00,63.1,59.8,28.02,ENE,68,0.0,0.0,89,0.00,,---,0.00,VWS V14.01,2013-10-04 05:14:00,
2013-10-04 01:18:00,63.1,59.8,28.02,ENE,68,0.0,0.0,89,0.00,,---,0.00,VWS V14.01,2013-10-04 05:18:00,
2013-10-04 01:21:00,63.1,59.8,28.02,ENE,68,0.0,0.0,89,0.00,,---,0.00,VWS V14.01,2013-10-04 05:21:00,
2013-10-04 01:24:00,63.0,59.7,28.02,ENE,68,0.0,0.0,89,0.00,,---,0.00,VWS V14.01,2013-10-04 05:24:00,
2013-10-04 01:31:00,63.1,59.8,28.02,ENE,68,0.0,0.0,89,0.00,,---,0.00,VWS V14.01,2013-10-04 05:31:00,
2013-10-04 01:36:00,63.1,59.8,28.02,ENE,68,0.0,0.0,89,0.00,,---,0.00,VWS V14.01,2013-10-04 05:36:00,
2013-10-04 01:41:00,63.1,59.8,28.02,ENE,68,0.0,0.0,89,0.00,,---,0.00,VWS V14.01,2013-10-04 05:41:00,
2013-10-04 01:46:00,63.1,59.8,28.02,ENE,68,0.0,0.0,89,0.00,,---,0.00,VWS V14.01,2013-10-04 05:46:00,
2013-10-04 01:51:00,63.0,59.7,28.02,ENE,68,0.0,0.0,89,0.00,,---,0.00,VWS V14.01,2013-10-04 05:51:00,
2013-10-04 01:56:00,63.0,59.7,28.02,ENE,68,0.0,0.0,89,0.00,,---,0.00,VWS V14.01,2013-10-04 05:56:00,
2013-10-04 02:01:00,63.0,59.7,28.02,ENE,68,0.0,0.0,89,0.00,,---,0.00,VWS V14.01,2013-10-04 06:01:00,
2013-10-04 02:06:00,63.1,59.8,28.02,ENE,68,0.0,0.0,89,0.00,,---,0.00,VWS V14.01,2013-10-04 06:06:00,
2013-10-04 02:11:00,63.1,59.8,28.02,ENE,68,0.0,0.0,89,0.00,,---,0.00,VWS V14.01,2013-10-04 06:11:00,
2013-10-04 02:16:00,63.1,59.8,28.02,ENE,68,0.0,0.0,89,0.00,,---,0.00,VWS V14.01,2013-10-04 06:16:00,
2013-10-04 02:21:00,63.1,59.8,28.02,ENE,68,0.0,0.0,89,0.00,,---,0.00,VWS V14.01,2013-10-04 06:21:00,
2013-10-04 02:26:00,63.1,59.8,28.02,ENE,68,0.0,0.0,89,0.00,,---,0.00,VWS V14.01,2013-10-04 06:26:00,
2013-10-04 02:31:00,63.1,60.2,28.02,ENE,68,0.0,0.0,90,0.00,,---,0.00,VWS V14.01,2013-10-04 06:31:00,
2013-10-04 02:36:00,63.5,60.5,28.02,ENE,68,0.0,0.0,90,0.00,,---,0.00,VWS V14.01,2013-10-04 06:36:00,
2013-10-04 02:41:00,63.5,60.5,28.02,ENE,68,0.0,0.0,90,0.00,,---,0.00,VWS V14.01,2013-10-04 06:41:00,
2013-10-04 02:46:00,63.5,60.5,28.02,ENE,68,0.0,0.0,90,0.00,,---,0.00,VWS V14.01,2013-10-04 06:46:00,
2013-10-04 02:51:00,63.5,60.5,28.02,ENE,68,0.0,0.0,90,0.00,,---,0.00,VWS V14.01,2013-10-04 06:51:00,
2013-10-04 02:56:00,63.5,60.5,28.02,ENE,68,0.0,0.0,90,0.00,,---,0.00,VWS V14.01,2013-10-04 06:56:00,
2013-10-04 03:02:00,63.5,60.5,28.02,ENE,68,0.0,0.0,90,0.00,,---,0.00,VWS V14.01,2013-10-04 07:02:00,
2013-10-04 03:07:00,63.3,60.3,28.02,ENE,68,0.0,0.0,90,0.00,,---,0.00,VWS V14.01,2013-10-04 07:07:00,
2013-10-04 03:12:00,63.3,60.3,28.02,ENE,68,0.0,0.0,90,0.00,,---,0.00,VWS V14.01,2013-10-04 07:12:00,
2013-10-04 03:17:00,63.3,60.3,28.02,ENE,68,0.0,0.0,90,0.00,,---,0.00,VWS V14.01,2013-10-04 07:17:00,
2013-10-04 03:22:00,63.3,60.7,28.02,ENE,68,0.0,0.0,91,0.00,,---,0.00,VWS V14.01,2013-10-04 07:22:00,
2013-10-04 03:27:00,63.3,60.7,28.02,ENE,68,0.0,0.0,91,0.00,,---,0.00,VWS V14.01,2013-10-04 07:27:00,
2013-10-04 03:32:00,63.3,60.7,28.02,ENE,68,0.0,0.0,91,0.00,,---,0.00,VWS V14.01,2013-10-04 07:32:00,
2013-10-04 03:37:00,63.3,60.7,28.02,ENE,68,0.0,0.0,91,0.00,,---,0.00,VWS V14.01,2013-10-04 07:37:00,
2013-10-04 03:42:00,63.3,60.7,28.02,ENE,68,0.0,0.0,91,0.00,,---,0.00,VWS V14.01,2013-10-04 07:42:00,
2013-10-04 03:47:00,63.3,60.7,28.02,ENE,68,0.0,0.0,91,0.00,,---,0.00,VWS V14.01,2013-10-04 07:47:00,
2013-10-04 03:52:00,63.3,61.0,28.02,ENE,68,0.0,0.0,92,0.00,,---,0.00,VWS V14.01,2013-10-04 07:52:00,
2013-10-04 03:57:00,63.3,61.0,28.02,ENE,68,0.0,0.0,92,0.00,,---,0.00,VWS V14.01,2013-10-04 07:57:00,
2013-10-04 04:02:00,63.3,61.0,28.02,ENE,68,0.0,0.0,92,0.00,,---,0.00,VWS V14.01,2013-10-04 08:02:00,
2013-10-04 04:07:00,63.3,61.0,28.02,ENE,68,0.0,0.0,92,0.00,,---,0.00,VWS V14.01,2013-10-04 08:07:00,
2013-10-04 04:12:00,63.3,61.0,28.02,ENE,68,0.0,0.0,92,0.00,,---,0.00,VWS V14.01,2013-10-04 08:12:00,
2013-10-04 04:17:00,63.3,61.0,28.02,ENE,68,0.0,0.0,92,0.00,,---,0.00,VWS V14.01,2013-10-04 08:17:00,
2013-10-04 04:22:00,63.3,61.0,28.02,ENE,68,0.0,0.0,92,0.00,,---,0.00,VWS V14.01,2013-10-04 08:22:00,
2013-10-04 04:27:00,63.1,60.8,28.02,ENE,68,0.0,0.0,92,0.00,,---,0.00,VWS V14.01,2013-10-04 08:27:00,
2013-10-04 04:32:00,63.1,60.8,28.02,ENE,68,0.0,0.0,92,0.00,,---,0.00,VWS V14.01,2013-10-04 08:32:00,
2013-10-04 04:37:00,63.1,60.8,28.02,ENE,68,0.0,0.0,92,0.00,,---,0.00,VWS V14.01,2013-10-04 08:37:00,
2013-10-04 04:42:00,63.1,60.8,28.02,ENE,68,0.0,0.0,92,0.00,,---,0.00,VWS V14.01,2013-10-04 08:42:00,
2013-10-04 04:47:00,63.1,60.8,28.02,ENE,68,0.0,0.0,92,0.00,,---,0.00,VWS V14.01,2013-10-04 08:47:00,
2013-10-04 04:52:00,63.1,60.8,28.02,ENE,68,0.0,0.0,92,0.00,,---,0.00,VWS V14.01,2013-10-04 08:52:00,
2013-10-04 04:57:00,63.0,60.9,28.02,ENE,68,0.0,0.0,93,0.00,,---,0.00,VWS V14.01,2013-10-04 08:57:00,
2013-10-04 05:02:00,63.0,60.9,28.02,ENE,68,0.0,0.0,93,0.00,,---,0.00,VWS V14.01,2013-10-04 09:02:00,
2013-10-04 05:07:00,62.8,60.7,28.02,ENE,68,0.0,0.0,93,0.00,,---,0.00,VWS V14.01,2013-10-04 09:07:00,
2013-10-04 05:12:00,62.6,60.5,28.02,ENE,68,0.0,0.0,93,0.00,,---,0.00,VWS V14.01,2013-10-04 09:12:00,
2013-10-04 05:17:00,62.6,60.5,28.02,ENE,68,0.0,0.0,93,0.00,,---,0.00,VWS V14.01,2013-10-04 09:17:00,
2013-10-04 05:22:00,62.6,60.5,28.02,ENE,68,0.0,0.0,93,0.00,,---,0.00,VWS V14.01,2013-10-04 09:22:00,
2013-10-04 05:27:00,62.4,60.7,28.02,ENE,68,0.0,0.0,94,0.00,,---,0.00,VWS V14.01,2013-10-04 09:27:00,
2013-10-04 05:32:00,62.4,60.7,28.02,ENE,68,0.0,0.0,94,0.00,,---,0.00,VWS V14.01,2013-10-04 09:32:00,
2013-10-04 05:37:00,62.4,60.7,28.02,ENE,68,0.0,0.0,94,0.00,,---,0.00,VWS V14.01,2013-10-04 09:37:00,
2013-10-04 05:42:00,62.4,60.7,28.02,ENE,68,0.0,0.0,94,0.00,,---,0.00,VWS V14.01,2013-10-04 09:42:00,
2013-10-04 05:47:00,62.4,60.7,28.02,ENE,68,0.0,0.0,94,0.00,,---,0.00,VWS V14.01,2013-10-04 09:47:00,
2013-10-04 05:52:00,62.4,60.7,28.02,ENE,68,0.0,0.0,94,0.00,,---,0.00,VWS V14.01,2013-10-04 09:52:00,
2013-10-04 05:57:00,62.4,60.7,28.02,ENE,68,0.0,0.0,94,0.00,,---,0.00,VWS V14.01,2013-10-04 09:57:00,
2013-10-04 06:02:00,62.4,60.7,28.02,ENE,68,0.0,0.0,94,0.00,,---,0.00,VWS V14.01,2013-10-04 10:02:00,
2013-10-04 06:07:00,62.4,60.7,28.02,ENE,68,0.0,0.0,94,0.00,,---,0.00,VWS V14.01,2013-10-04 10:07:00,
2013-10-04 06:12:00,62.4,60.7,28.02,ENE,68,0.0,0.0,94,0.00,,---,0.00,VWS V14.01,2013-10-04 10:12:00,
2013-10-04 06:17:00,62.4,60.7,28.02,ENE,68,0.0,0.0,94,0.00,,---,0.00,VWS V14.01,2013-10-04 10:17:00,
2013-10-04 06:22:00,62.6,60.8,28.02,ENE,68,0.0,0.0,94,0.00,,---,0.00,VWS V14.01,2013-10-04 10:22:00,
2013-10-04 06:27:00,62.6,60.8,28.02,ENE,68,0.0,0.0,94,0.00,,---,0.00,VWS V14.01,2013-10-04 10:27:00,
2013-10-04 06:32:00,62.6,60.8,28.02,ENE,68,0.0,0.0,94,0.00,,---,0.00,VWS V14.01,2013-10-04 10:32:00,
2013-10-04 06:37:00,62.6,60.8,28.02,ENE,68,0.0,0.0,94,0.00,,---,0.00,VWS V14.01,2013-10-04 10:37:00,
2013-10-04 06:42:00,62.6,60.8,28.02,ENE,68,0.0,0.0,94,0.00,,---,0.00,VWS V14.01,2013-10-04 10:42:00,
2013-10-04 06:47:00,62.6,60.8,28.02,ENE,68,0.0,0.0,94,0.00,,---,0.00,VWS V14.01,2013-10-04 10:47:00,
2013-10-04 06:52:00,62.4,60.7,28.02,ENE,68,0.0,0.0,94,0.00,,---,0.00,VWS V14.01,2013-10-04 10:52:00,
2013-10-04 06:58:00,62.4,60.7,28.02,ENE,68,0.0,0.0,94,0.00,,---,0.00,VWS V14.01,2013-10-04 10:58:00,
2013-10-04 07:03:00,62.4,60.7,28.02,ENE,68,0.0,0.0,94,0.00,,---,0.00,VWS V14.01,2013-10-04 11:03:00,
2013-10-04 07:08:00,62.2,60.5,28.02,ENE,68,0.0,0.0,94,0.00,,---,0.00,VWS V14.01,2013-10-04 11:08:00,
2013-10-04 07:13:00,62.2,60.5,28.02,ENE,68,0.0,0.0,94,0.00,,---,0.00,VWS V14.01,2013-10-04 11:13:00,
2013-10-04 07:18:00,62.2,60.5,28.02,ENE,68,0.0,0.0,94,0.00,,---,0.00,VWS V14.01,2013-10-04 11:18:00,
2013-10-04 07:23:00,62.2,60.5,28.02,ENE,68,0.0,0.0,94,0.00,,---,0.00,VWS V14.01,2013-10-04 11:23:00,
2013-10-04 07:28:00,62.1,60.6,28.02,ENE,68,0.0,0.0,95,0.00,,---,0.00,VWS V14.01,2013-10-04 11:28:00,
2013-10-04 07:33:00,62.1,60.3,28.02,ENE,68,0.0,0.0,94,0.00,,---,0.00,VWS V14.01,2013-10-04 11:33:00,
2013-10-04 07:38:00,62.1,60.3,28.02,ENE,68,0.0,0.0,94,0.00,,---,0.00,VWS V14.01,2013-10-04 11:38:00,
2013-10-04 07:43:00,62.2,60.5,28.02,ENE,68,0.0,0.0,94,0.00,,---,0.00,VWS V14.01,2013-10-04 11:43:00,
2013-10-04 07:48:00,62.2,60.5,28.02,ENE,68,0.0,0.0,94,0.00,,---,0.00,VWS V14.01,2013-10-04 11:48:00,
2013-10-04 07:53:00,62.4,60.7,28.02,ENE,68,0.0,0.0,94,0.00,,---,0.00,VWS V14.01,2013-10-04 11:53:00,
2013-10-04 07:58:00,62.4,60.7,28.02,ENE,68,0.0,0.0,94,0.00,,---,0.00,VWS V14.01,2013-10-04 11:58:00,
2013-10-04 08:03:00,62.4,60.7,28.02,ENE,68,0.0,0.0,94,0.00,,---,0.00,VWS V14.01,2013-10-04 12:03:00,
2013-10-04 08:08:00,62.4,60.7,28.02,ENE,68,0.0,0.0,94,0.00,,---,0.00,VWS V14.01,2013-10-04 12:08:00,
2013-10-04 08:13:00,62.6,60.5,28.02,ENE,68,0.0,0.0,93,0.00,,---,0.00,VWS V14.01,2013-10-04 12:13:00,
2013-10-04 08:18:00,62.8,60.7,28.02,ENE,68,0.0,0.0,93,0.00,,---,0.00,VWS V14.01,2013-10-04 12:18:00,
2013-10-04 08:23:00,62.8,60.7,28.05,ENE,68,0.0,0.0,93,0.00,,---,0.00,VWS V14.01,2013-10-04 12:23:00,
2013-10-04 08:28:00,63.1,61.1,28.05,ENE,68,0.0,0.0,93,0.00,,---,0.00,VWS V14.01,2013-10-04 12:28:00,
2013-10-04 08:33:00,63.1,61.1,28.05,ENE,68,0.0,0.0,93,0.00,,---,0.00,VWS V14.01,2013-10-04 12:33:00,
2013-10-04 08:38:00,63.3,61.3,28.05,ENE,68,0.0,0.0,93,0.00,,---,0.00,VWS V14.01,2013-10-04 12:38:00,
2013-10-04 08:43:00,63.5,61.4,28.05,ENE,68,0.0,0.0,93,0.00,,---,0.00,VWS V14.01,2013-10-04 12:43:00,
2013-10-04 08:48:00,63.9,61.8,28.05,ENE,68,0.0,0.0,93,0.00,,---,0.00,VWS V14.01,2013-10-04 12:48:00,
2013-10-04 08:53:00,64.2,62.2,28.05,North,0,0.0,0.0,93,0.00,,---,0.00,VWS V14.01,2013-10-04 12:53:00,
2013-10-04 08:58:00,64.4,62.3,28.05,NE,45,0.0,0.0,93,0.00,,---,0.00,VWS V14.01,2013-10-04 12:58:00,
2013-10-04 09:03:00,64.6,62.5,28.05,NNE,22,0.0,0.0,93,0.00,,---,0.00,VWS V14.01,2013-10-04 13:03:00,
2013-10-04 09:09:00,64.8,62.7,28.05,NNE,22,0.0,0.0,93,0.00,,---,0.00,VWS V14.01,2013-10-04 13:09:00,
2013-10-04 09:14:00,65.3,63.2,28.05,NNE,22,0.0,0.0,93,0.00,,---,0.00,VWS V14.01,2013-10-04 13:14:00,
2013-10-04 09:19:00,66.0,63.6,28.05,NNE,22,0.0,0.0,92,0.00,,---,0.00,VWS V14.01,2013-10-04 13:19:00,
2013-10-04 09:24:00,66.6,63.9,28.05,NNE,22,0.0,0.0,91,0.00,,---,0.00,VWS V14.01,2013-10-04 13:24:00,
2013-10-04 09:29:00,66.7,64.0,28.05,NNE,22,0.0,0.0,91,0.00,,---,0.00,VWS V14.01,2013-10-04 13:29:00,
2013-10-04 09:34:00,66.9,64.2,28.05,NNE,22,0.0,0.0,91,0.00,,---,0.00,VWS V14.01,2013-10-04 13:34:00,
2013-10-04 09:39:00,67.1,64.1,28.05,ENE,68,0.0,0.0,90,0.00,,---,0.00,VWS V14.01,2013-10-04 13:39:00,
2013-10-04 09:44:00,67.1,64.4,28.05,ENE,68,0.0,0.0,91,0.00,,---,0.00,VWS V14.01,2013-10-04 13:44:00,
2013-10-04 09:49:00,67.3,64.2,28.05,NNE,22,1.1,2.5,90,0.00,,---,0.00,VWS V14.01,2013-10-04 13:49:00,
2013-10-04 09:54:00,67.5,64.4,28.05,NE,45,0.0,0.0,90,0.00,,---,0.00,VWS V14.01,2013-10-04 13:54:00,
2013-10-04 09:59:00,67.6,64.3,28.05,NE,45,0.0,0.0,89,0.00,,---,0.00,VWS V14.01,2013-10-04 13:59:00,
2013-10-04 10:04:00,67.8,64.5,28.05,NE,45,0.0,0.0,89,0.00,,---,0.00,VWS V14.01,2013-10-04 14:04:00,
2013-10-04 10:09:00,68.0,64.3,28.05,NE,45,0.0,0.0,88,0.00,,---,0.00,VWS V14.01,2013-10-04 14:09:00,
2013-10-04 10:14:00,68.4,64.3,28.05,NE,45,0.0,0.0,87,0.00,,---,0.00,VWS V14.01,2013-10-04 14:14:00,
2013-10-04 10:19:00,68.5,64.5,28.05,NE,45,0.0,0.0,87,0.00,,---,0.00,VWS V14.01,2013-10-04 14:19:00,
2013-10-04 10:24:00,68.7,64.7,28.05,NE,45,0.0,0.0,87,0.00,,---,0.00,VWS V14.01,2013-10-04 14:24:00,
2013-10-04 10:29:00,68.9,64.2,28.05,NE,45,0.0,0.0,85,0.00,,---,0.00,VWS V14.01,2013-10-04 14:29:00,
2013-10-04 10:34:00,69.1,64.4,28.05,NE,45,0.0,0.0,85,0.00,,---,0.00,VWS V14.01,2013-10-04 14:34:00,
2013-10-04 10:39:00,69.1,63.4,28.05,NE,45,0.0,0.0,82,0.00,,---,0.00,VWS V14.01,2013-10-04 14:39:00,
2013-10-04 10:44:00,69.3,64.2,28.05,NE,45,0.0,0.0,84,0.00,,---,0.00,VWS V14.01,2013-10-04 14:44:00,
2013-10-04 10:49:00,69.4,64.4,28.08,NE,45,0.0,0.0,84,0.00,,---,0.00,VWS V14.01,2013-10-04 14:49:00,
2013-10-04 10:54:00,69.8,64.8,28.08,NE,45,0.0,0.0,84,0.00,,---,0.00,VWS V14.01,2013-10-04 14:54:00,
2013-10-04 11:00:00,70.0,64.2,28.08,NE,45,0.0,0.0,82,0.00,,---,0.00,VWS V14.01,2013-10-04 15:00:00,
2013-10-04 11:05:00,70.2,64.4,28.08,SE,135,0.0,0.0,82,0.00,,---,0.00,VWS V14.01,2013-10-04 15:05:00,
2013-10-04 11:10:00,70.5,64.4,28.08,ESE,112,0.0,0.0,81,0.00,,---,0.00,VWS V14.01,2013-10-04 15:10:00,
2013-10-04 11:15:00,70.5,64.4,28.08,SSE,158,0.0,0.0,81,0.00,,---,0.00,VWS V14.01,2013-10-04 15:15:00,
2013-10-04 11:17:00,70.5,64.4,28.08,SSE,158,0.0,0.0,81,0.00,,---,0.00,VWS V14.01,2013-10-04 15:17:00,
2013-10-04 11:22:00,70.3,64.2,28.08,SSE,158,0.0,0.0,81,0.00,,---,0.00,VWS V14.01,2013-10-04 15:22:00,
2013-10-04 11:27:00,70.5,64.1,28.08,SSE,158,0.0,0.0,80,0.00,,---,0.00,VWS V14.01,2013-10-04 15:27:00,
2013-10-04 11:32:00,70.9,64.4,28.08,SSW,202,0.0,0.0,80,0.00,,---,0.00,VWS V14.01,2013-10-04 15:32:00,
2013-10-04 11:37:00,70.9,64.1,28.08,SSW,202,0.0,0.0,79,0.00,,---,0.00,VWS V14.01,2013-10-04 15:37:00,
2013-10-04 11:42:00,71.1,64.2,28.08,SSW,202,0.0,0.0,79,0.00,,---,0.00,VWS V14.01,2013-10-04 15:42:00,
2013-10-04 11:47:00,71.1,64.2,28.08,SSW,202,0.0,0.0,79,0.00,,---,0.00,VWS V14.01,2013-10-04 15:47:00,
2013-10-04 11:52:00,71.2,64.4,28.05,SW,225,0.0,0.0,79,0.00,,---,0.00,VWS V14.01,2013-10-04 15:52:00,
2013-10-04 11:57:00,71.4,64.6,28.05,SW,225,0.0,0.0,79,0.00,,---,0.00,VWS V14.01,2013-10-04 15:57:00,
2013-10-04 12:02:00,71.4,64.2,28.05,SW,225,0.0,0.0,78,0.00,,---,0.00,VWS V14.01,2013-10-04 16:02:00,
2013-10-04 12:07:00,71.4,64.2,28.08,SW,225,0.0,0.0,78,0.00,,---,0.00,VWS V14.01,2013-10-04 16:07:00,
2013-10-04 12:12:00,71.4,64.2,28.08,SW,225,0.0,0.0,78,0.00,,---,0.00,VWS V14.01,2013-10-04 16:12:00,
2013-10-04 12:17:00,71.6,64.4,28.08,SW,225,0.0,0.0,78,0.00,,---,0.00,VWS V14.01,2013-10-04 16:17:00,
2013-10-04 12:22:00,71.8,64.6,28.08,NW,315,0.0,0.0,78,0.00,,---,0.00,VWS V14.01,2013-10-04 16:22:00,
2013-10-04 12:27:00,72.1,64.5,28.08,NE,45,0.0,0.0,77,0.00,,---,0.00,VWS V14.01,2013-10-04 16:27:00,
2013-10-04 12:32:00,72.3,64.7,28.08,NE,45,0.0,0.0,77,0.00,,---,0.00,VWS V14.01,2013-10-04 16:32:00,
2013-10-04 12:37:00,72.3,64.0,28.05,NE,45,0.0,0.0,75,0.00,,---,0.00,VWS V14.01,2013-10-04 16:37:00,
2013-10-04 12:42:00,72.5,64.5,28.05,NE,45,0.0,0.0,76,0.00,,---,0.00,VWS V14.01,2013-10-04 16:42:00,
2013-10-04 12:48:00,72.5,64.5,28.05,NE,45,0.0,0.0,76,0.00,,---,0.00,VWS V14.01,2013-10-04 16:48:00,
2013-10-04 12:53:00,72.7,64.7,28.08,ESE,112,0.9,0.9,76,0.00,,---,0.00,VWS V14.01,2013-10-04 16:53:00,
2013-10-04 12:58:00,72.7,63.9,28.08,East,90,0.0,0.0,74,0.00,,---,0.00,VWS V14.01,2013-10-04 16:58:00,
2013-10-04 13:03:00,72.9,64.1,28.08,East,90,0.0,0.0,74,0.00,,---,0.00,VWS V14.01,2013-10-04 17:03:00,
2013-10-04 13:08:00,73.0,64.7,28.05,NW,315,0.0,0.9,75,0.00,,---,0.00,VWS V14.01,2013-10-04 17:08:00,
2013-10-04 13:13:00,73.2,64.4,28.05,SW,225,0.0,0.0,74,0.00,,---,0.00,VWS V14.01,2013-10-04 17:13:00,
2013-10-04 13:18:00,73.2,64.4,28.05,SW,225,0.0,0.0,74,0.00,,---,0.00,VWS V14.01,2013-10-04 17:18:00,
2013-10-04 13:23:00,73.4,64.6,28.05,SW,225,0.0,0.0,74,0.00,,---,0.00,VWS V14.01,2013-10-04 17:23:00,
2013-10-04 13:28:00,73.4,64.6,28.05,SW,225,0.0,0.0,74,0.00,,---,0.00,VWS V14.01,2013-10-04 17:28:00,
2013-10-04 13:33:00,73.4,65.0,28.05,SW,225,0.0,0.0,75,0.00,,---,0.00,VWS V14.01,2013-10-04 17:33:00,
2013-10-04 13:58:00,73.8,63.4,28.05,East,90,0.0,0.9,70,0.00,,---,0.00,VWS V14.01,2013-10-04 17:58:00,
2013-10-04 14:03:00,74.1,63.7,28.05,NE,45,0.0,0.0,70,0.00,,---,0.00,VWS V14.01,2013-10-04 18:03:00,
2013-10-04 14:08:00,73.9,63.5,28.05,SE,135,0.0,0.0,70,0.00,,---,0.00,VWS V14.01,2013-10-04 18:08:00,
2013-10-04 14:13:00,74.1,63.7,28.05,ESE,112,0.0,0.0,70,0.00,,---,0.00,VWS V14.01,2013-10-04 18:13:00,
2013-10-04 14:18:00,74.1,63.7,28.05,East,90,0.0,1.1,70,0.00,,---,0.00,VWS V14.01,2013-10-04 18:18:00,
2013-10-04 14:23:00,74.1,63.7,28.05,SE,135,0.0,0.0,70,0.00,,---,0.00,VWS V14.01,2013-10-04 18:23:00,
2013-10-04 14:28:00,74.3,63.9,28.05,South,180,0.0,0.0,70,0.00,,---,0.00,VWS V14.01,2013-10-04 18:28:00,
2013-10-04 14:33:00,74.1,63.7,28.05,SE,135,0.0,0.0,70,0.00,,---,0.00,VWS V14.01,2013-10-04 18:33:00,
2013-10-04 14:39:00,74.3,63.9,28.05,SSW,202,0.0,0.0,70,0.00,,---,0.00,VWS V14.01,2013-10-04 18:39:00,
2013-10-04 14:44:00,74.3,63.9,28.05,SSW,202,0.0,0.0,70,0.00,,---,0.00,VWS V14.01,2013-10-04 18:44:00,
2013-10-04 14:49:00,74.5,64.1,28.05,SW,225,0.0,0.0,70,0.00,,---,0.00,VWS V14.01,2013-10-04 18:49:00,
2013-10-04 14:54:00,74.5,64.1,28.02,SE,135,0.0,0.0,70,0.00,,---,0.00,VWS V14.01,2013-10-04 18:54:00,
2013-10-04 14:59:00,74.7,64.2,28.02,SW,225,0.0,0.9,70,0.00,,---,0.00,VWS V14.01,2013-10-04 18:59:00,
2013-10-04 15:04:00,74.8,64.0,28.02,WSW,248,0.0,0.0,69,0.00,,---,0.00,VWS V14.01,2013-10-04 19:04:00,
2013-10-04 15:09:00,74.8,64.0,28.02,East,90,0.0,0.0,69,0.00,,---,0.00,VWS V14.01,2013-10-04 19:09:00,
2013-10-04 15:14:00,74.7,63.8,28.02,East,90,0.0,0.0,69,0.00,,---,0.00,VWS V14.01,2013-10-04 19:14:00,
2013-10-04 15:19:00,75.0,63.8,28.02,East,90,0.0,0.0,68,0.00,,---,0.00,VWS V14.01,2013-10-04 19:19:00,
2013-10-04 15:24:00,75.0,64.2,28.02,WSW,248,0.0,0.0,69,0.00,,---,0.00,VWS V14.01,2013-10-04 19:24:00,
2013-10-04 15:29:00,75.2,64.3,28.02,SE,135,0.0,0.0,69,0.00,,---,0.00,VWS V14.01,2013-10-04 19:29:00,
2013-10-04 15:34:00,75.0,64.2,28.02,SSE,158,0.0,0.0,69,0.00,,---,0.00,VWS V14.01,2013-10-04 19:34:00,
2013-10-04 15:39:00,75.2,63.9,28.02,NE,45,0.0,0.0,68,0.00,,---,0.00,VWS V14.01,2013-10-04 19:39:00,
2013-10-04 15:44:00,75.4,64.1,28.02,East,90,0.0,0.0,68,0.00,,---,0.00,VWS V14.01,2013-10-04 19:44:00,
2013-10-04 15:49:00,75.7,64.4,28.02,East,90,0.0,0.0,68,0.00,,---,0.00,VWS V14.01,2013-10-04 19:49:00,
2013-10-04 15:54:00,75.7,64.4,28.02,NNW,338,0.0,0.0,68,0.00,,---,0.00,VWS V14.01,2013-10-04 19:54:00,
2013-10-04 15:59:00,75.7,64.0,28.02,WNW,292,0.0,0.0,67,0.00,,---,0.00,VWS V14.01,2013-10-04 19:59:00,
2013-10-04 16:04:00,75.9,64.2,28.02,WNW,292,0.0,2.2,67,0.00,,---,0.00,VWS V14.01,2013-10-04 20:04:00,
2013-10-04 16:09:00,75.4,63.7,28.02,WNW,292,0.0,0.0,67,0.00,,---,0.00,VWS V14.01,2013-10-04 20:09:00,
2013-10-04 16:14:00,75.6,64.3,28.02,WNW,292,0.0,0.0,68,0.00,,---,0.00,VWS V14.01,2013-10-04 20:14:00,
2013-10-04 16:19:00,75.7,64.9,28.02,WNW,292,0.0,0.0,69,0.00,,---,0.00,VWS V14.01,2013-10-04 20:19:00,
2013-10-04 16:24:00,75.9,64.6,28.02,WNW,292,0.0,0.0,68,0.00,,---,0.00,VWS V14.01,2013-10-04 20:24:00,
2013-10-04 16:30:00,75.9,65.0,28.02,WNW,292,0.0,0.0,69,0.00,,---,0.00,VWS V14.01,2013-10-04 20:30:00,
2013-10-04 16:35:00,76.1,64.8,28.02,East,90,0.0,0.0,68,0.00,,---,0.00,VWS V14.01,2013-10-04 20:35:00,
2013-10-04 16:40:00,76.1,64.8,28.02,NW,315,0.0,0.9,68,0.00,,---,0.00,VWS V14.01,2013-10-04 20:40:00,
2013-10-04 16:45:00,75.6,64.7,28.02,NW,315,0.0,0.0,69,0.00,,---,0.00,VWS V14.01,2013-10-04 20:45:00,
2013-10-04 16:50:00,75.2,64.3,28.02,SW,225,0.0,0.0,69,0.00,,---,0.00,VWS V14.01,2013-10-04 20:50:00,
2013-10-04 16:55:00,75.0,64.6,28.02,East,90,0.0,0.9,70,0.00,,---,0.00,VWS V14.01,2013-10-04 20:55:00,
2013-10-04 17:00:00,74.8,64.4,28.02,ESE,112,0.0,0.0,70,0.00,,---,0.00,VWS V14.01,2013-10-04 21:00:00,
2013-10-04 17:05:00,74.5,64.5,28.02,SE,135,0.0,0.0,71,0.00,,---,0.00,VWS V14.01,2013-10-04 21:05:00,
2013-10-04 17:10:00,74.3,64.3,28.02,ESE,112,0.0,0.0,71,0.00,,---,0.00,VWS V14.01,2013-10-04 21:10:00,
2013-10-04 17:15:00,73.9,64.3,28.02,ENE,68,0.0,0.0,72,0.00,,---,0.00,VWS V14.01,2013-10-04 21:15:00,
2013-10-04 17:20:00,73.8,64.6,28.02,ENE,68,0.0,0.0,73,0.00,,---,0.00,VWS V14.01,2013-10-04 21:20:00,
2013-10-04 17:25:00,73.6,64.8,28.02,SSE,158,0.0,0.0,74,0.00,,---,0.00,VWS V14.01,2013-10-04 21:25:00,
2013-10-04 17:30:00,73.4,64.6,28.02,East,90,0.0,0.0,74,0.00,,---,0.00,VWS V14.01,2013-10-04 21:30:00,
2013-10-04 17:35:00,73.2,64.4,28.02,East,90,0.0,0.0,74,0.00,,---,0.00,VWS V14.01,2013-10-04 21:35:00,
2013-10-04 17:40:00,73.2,64.8,28.02,WNW,292,0.0,0.0,75,0.00,,---,0.00,VWS V14.01,2013-10-04 21:40:00,
2013-10-04 17:45:00,73.0,65.0,28.02,WNW,292,0.0,0.0,76,0.00,,---,0.00,VWS V14.01,2013-10-04 21:45:00,
2013-10-04 17:50:00,72.9,64.9,28.02,WNW,292,0.0,0.0,76,0.00,,---,0.00,VWS V14.01,2013-10-04 21:50:00,
2013-10-04 17:55:00,72.9,65.2,28.02,WNW,292,0.0,0.0,77,0.00,,---,0.00,VWS V14.01,2013-10-04 21:55:00,
2013-10-04 18:00:00,72.7,65.1,28.02,WNW,292,0.0,0.0,77,0.00,,---,0.00,VWS V14.01,2013-10-04 22:00:00,
2013-10-04 18:05:00,72.5,65.3,28.02,WNW,292,0.0,0.0,78,0.00,,---,0.00,VWS V14.01,2013-10-04 22:05:00,
2013-10-04 18:10:00,72.5,65.3,28.02,WNW,292,0.0,0.0,78,0.00,,---,0.00,VWS V14.01,2013-10-04 22:10:00,
2013-10-04 18:15:00,72.3,65.1,28.02,WNW,292,0.0,0.0,78,0.00,,---,0.00,VWS V14.01,2013-10-04 22:15:00,
2013-10-04 18:21:00,72.1,65.3,28.02,WNW,292,0.0,0.0,79,0.00,,---,0.00,VWS V14.01,2013-10-04 22:21:00,
2013-10-04 18:26:00,72.1,65.3,28.02,WNW,292,0.0,0.0,79,0.00,,---,0.00,VWS V14.01,2013-10-04 22:26:00,
2013-10-04 18:31:00,72.1,65.3,28.02,WNW,292,0.0,0.0,79,0.00,,---,0.00,VWS V14.01,2013-10-04 22:31:00,
2013-10-04 18:36:00,72.0,65.1,28.02,WNW,292,0.0,0.0,79,0.00,,---,0.00,VWS V14.01,2013-10-04 22:36:00,
2013-10-04 18:41:00,71.8,65.3,28.02,WNW,292,0.0,0.0,80,0.00,,---,0.00,VWS V14.01,2013-10-04 22:41:00,
2013-10-04 18:46:00,71.6,65.1,28.02,WNW,292,0.0,0.0,80,0.00,,---,0.00,VWS V14.01,2013-10-04 22:46:00,
2013-10-04 18:51:00,71.2,65.1,28.02,WNW,292,0.0,0.0,81,0.00,,---,0.00,VWS V14.01,2013-10-04 22:51:00,
2013-10-04 18:56:00,70.9,64.8,28.02,WNW,292,0.0,0.0,81,0.00,,---,0.00,VWS V14.01,2013-10-04 22:56:00,
2013-10-04 19:01:00,70.9,64.8,28.02,WNW,292,0.0,0.0,81,0.00,,---,0.00,VWS V14.01,2013-10-04 23:01:00,
2013-10-04 19:06:00,70.5,65.1,28.02,WNW,292,0.0,0.0,83,0.00,,---,0.00,VWS V14.01,2013-10-04 23:06:00,
2013-10-04 19:11:00,70.2,64.8,28.02,WNW,292,0.0,0.0,83,0.00,,---,0.00,VWS V14.01,2013-10-04 23:11:00,
2013-10-04 19:16:00,70.0,64.9,28.02,WNW,292,0.0,0.0,84,0.00,,---,0.00,VWS V14.01,2013-10-04 23:16:00,
2013-10-04 19:21:00,69.8,64.8,28.02,WNW,292,0.0,0.0,84,0.00,,---,0.00,VWS V14.01,2013-10-04 23:21:00,
2013-10-04 19:26:00,69.4,64.7,28.02,WNW,292,0.0,0.0,85,0.00,,---,0.00,VWS V14.01,2013-10-04 23:26:00,
2013-10-04 19:31:00,69.1,64.4,28.02,WNW,292,0.0,0.0,85,0.00,,---,0.00,VWS V14.01,2013-10-04 23:31:00,
2013-10-04 19:36:00,68.9,64.2,28.02,WNW,292,0.0,0.0,85,0.00,,---,0.00,VWS V14.01,2013-10-04 23:36:00,
2013-10-04 19:41:00,68.7,64.0,28.02,WNW,292,0.0,0.0,85,0.00,,---,0.00,VWS V14.01,2013-10-04 23:41:00,
2013-10-04 19:46:00,68.5,64.2,28.02,WNW,292,0.0,0.0,86,0.00,,---,0.00,VWS V14.01,2013-10-04 23:46:00,
2013-10-04 19:51:00,68.4,64.0,28.02,WNW,292,0.0,0.0,86,0.00,,---,0.00,VWS V14.01,2013-10-04 23:51:00,
2013-10-04 19:56:00,68.4,64.0,28.02,WNW,292,0.0,0.0,86,0.00,,---,0.00,VWS V14.01,2013-10-04 23:56:00,
2013-10-04 20:01:00,68.2,64.2,28.02,WNW,292,0.0,0.0,87,0.00,,---,0.00,VWS V14.01,2013-10-05 00:01:00,
2013-10-04 20:07:00,68.0,64.0,28.02,WNW,292,0.0,0.0,87,0.00,,---,0.00,VWS V14.01,2013-10-05 00:07:00,
2013-10-04 20:12:00,68.0,64.0,28.02,WNW,292,0.0,0.0,87,0.00,,---,0.00,VWS V14.01,2013-10-05 00:12:00,
2013-10-04 20:17:00,67.8,64.1,28.02,WNW,292,0.0,0.0,88,0.00,,---,0.00,VWS V14.01,2013-10-05 00:17:00,
2013-10-04 20:22:00,67.6,64.0,28.02,WNW,292,0.0,0.0,88,0.00,,---,0.00,VWS V14.01,2013-10-05 00:22:00,
2013-10-04 20:27:00,67.5,64.1,28.02,WNW,292,0.0,0.0,89,0.00,,---,0.00,VWS V14.01,2013-10-05 00:27:00,
2013-10-04 20:32:00,67.5,64.1,28.02,WNW,292,0.0,0.0,89,0.00,,---,0.00,VWS V14.01,2013-10-05 00:32:00,
2013-10-04 20:37:00,67.3,63.9,28.02,WNW,292,0.0,0.0,89,0.00,,---,0.00,VWS V14.01,2013-10-05 00:37:00,
2013-10-04 20:42:00,67.1,63.8,28.02,WNW,292,0.0,0.0,89,0.00,,---,0.00,VWS V14.01,2013-10-05 00:42:00,
2013-10-04 20:47:00,67.1,64.1,28.02,WNW,292,0.0,0.0,90,0.00,,---,0.00,VWS V14.01,2013-10-05 00:47:00,
2013-10-04 20:52:00,66.9,63.9,28.02,WNW,292,0.0,0.0,90,0.00,,---,0.00,VWS V14.01,2013-10-05 00:52:00,
2013-10-04 20:57:00,66.9,63.9,28.02,WNW,292,0.0,0.0,90,0.00,,---,0.00,VWS V14.01,2013-10-05 00:57:00,
2013-10-04 21:02:00,66.9,63.9,28.02,WNW,292,0.0,0.0,90,0.00,,---,0.00,VWS V14.01,2013-10-05 01:02:00,
2013-10-04 21:07:00,66.7,63.7,28.02,WNW,292,0.0,0.0,90,0.00,,---,0.00,VWS V14.01,2013-10-05 01:07:00,
2013-10-04 21:12:00,66.7,63.7,28.02,WNW,292,0.0,0.0,90,0.00,,---,0.00,VWS V14.01,2013-10-05 01:12:00,
2013-10-04 21:17:00,66.7,63.7,28.02,WNW,292,0.0,0.0,90,0.00,,---,0.00,VWS V14.01,2013-10-05 01:17:00,
2013-10-04 21:22:00,66.6,63.9,28.02,WNW,292,0.0,0.0,91,0.00,,---,0.00,VWS V14.01,2013-10-05 01:22:00,
2013-10-04 21:27:00,66.6,63.9,28.02,WNW,292,0.0,0.0,91,0.00,,---,0.00,VWS V14.01,2013-10-05 01:27:00,
2013-10-04 21:32:00,66.4,63.7,28.02,WNW,292,0.0,0.0,91,0.00,,---,0.00,VWS V14.01,2013-10-05 01:32:00,
2013-10-04 21:37:00,66.4,63.7,28.02,WNW,292,0.0,0.0,91,0.00,,---,0.00,VWS V14.01,2013-10-05 01:37:00,
2013-10-04 21:42:00,66.2,63.5,28.02,WNW,292,0.0,0.0,91,0.00,,---,0.00,VWS V14.01,2013-10-05 01:42:00,
2013-10-04 21:47:00,66.2,63.5,28.02,WNW,292,0.0,0.0,91,0.00,,---,0.00,VWS V14.01,2013-10-05 01:47:00,
2013-10-04 21:52:00,66.0,63.6,28.05,WNW,292,0.0,0.0,92,0.00,,---,0.00,VWS V14.01,2013-10-05 01:52:00,
2013-10-04 21:58:00,66.0,63.6,28.05,WNW,292,0.0,0.0,92,0.00,,---,0.00,VWS V14.01,2013-10-05 01:58:00,
2013-10-04 22:03:00,65.8,63.5,28.05,WNW,292,0.0,0.0,92,0.00,,---,0.00,VWS V14.01,2013-10-05 02:03:00,
2013-10-04 22:08:00,65.8,63.5,28.02,WNW,292,0.0,0.0,92,0.00,,---,0.00,VWS V14.01,2013-10-05 02:08:00,
2013-10-04 22:13:00,65.8,63.5,28.02,WNW,292,0.0,0.0,92,0.00,,---,0.00,VWS V14.01,2013-10-05 02:13:00,
2013-10-04 22:18:00,65.8,63.5,28.02,WNW,292,0.0,0.0,92,0.00,,---,0.00,VWS V14.01,2013-10-05 02:18:00,
2013-10-04 22:23:00,65.8,63.5,28.05,WNW,292,0.0,0.0,92,0.00,,---,0.00,VWS V14.01,2013-10-05 02:23:00,
2013-10-04 22:28:00,65.8,63.5,28.05,WNW,292,0.0,0.0,92,0.00,,---,0.00,VWS V14.01,2013-10-05 02:28:00,
2013-10-04 22:33:00,65.8,63.8,28.05,WNW,292,0.0,0.0,93,0.00,,---,0.00,VWS V14.01,2013-10-05 02:33:00,
2013-10-04 22:38:00,65.8,63.8,28.05,WNW,292,0.0,0.0,93,0.00,,---,0.00,VWS V14.01,2013-10-05 02:38:00,
2013-10-04 22:43:00,65.8,63.8,28.05,WNW,292,0.0,0.0,93,0.00,,---,0.00,VWS V14.01,2013-10-05 02:43:00,
2013-10-04 22:48:00,65.8,63.8,28.05,WNW,292,0.0,0.0,93,0.00,,---,0.00,VWS V14.01,2013-10-05 02:48:00,
2013-10-04 22:53:00,65.8,63.8,28.02,WNW,292,0.0,0.0,93,0.00,,---,0.00,VWS V14.01,2013-10-05 02:53:00,
2013-10-04 22:58:00,65.7,63.6,28.02,WNW,292,0.0,0.0,93,0.00,,---,0.00,VWS V14.01,2013-10-05 02:58:00,
2013-10-04 23:03:00,65.7,63.6,28.02,WNW,292,0.0,0.0,93,0.00,,---,0.00,VWS V14.01,2013-10-05 03:03:00,
2013-10-04 23:08:00,65.7,63.6,28.05,WNW,292,0.0,0.0,93,0.00,,---,0.00,VWS V14.01,2013-10-05 03:08:00,
2013-10-04 23:13:00,65.7,63.6,28.05,WNW,292,0.0,0.0,93,0.00,,---,0.00,VWS V14.01,2013-10-05 03:13:00,
2013-10-04 23:18:00,65.7,63.6,28.05,WNW,292,0.0,0.0,93,0.00,,---,0.00,VWS V14.01,2013-10-05 03:18:00,
2013-10-04 23:23:00,65.7,63.6,28.02,WNW,292,0.0,0.0,93,0.00,,---,0.00,VWS V14.01,2013-10-05 03:23:00,
2013-10-04 23:28:00,65.7,63.6,28.02,WNW,292,0.0,0.0,93,0.00,,---,0.00,VWS V14.01,2013-10-05 03:28:00,
2013-10-04 23:33:00,65.7,63.6,28.02,WNW,292,0.0,0.0,93,0.00,,---,0.00,VWS V14.01,2013-10-05 03:33:00,
2013-10-04 23:38:00,65.5,63.4,28.02,WNW,292,0.0,0.0,93,0.00,,---,0.00,VWS V14.01,2013-10-05 03:38:00,
2013-10-04 23:44:00,65.5,63.4,28.02,WNW,292,0.0,0.0,93,0.00,,---,0.00,VWS V14.01,2013-10-05 03:44:00,
2013-10-04 23:49:00,65.3,63.2,28.02,WNW,292,0.0,0.0,93,0.00,,---,0.00,VWS V14.01,2013-10-05 03:49:00,
2013-10-04 23:54:00,65.3,63.2,28.02,WNW,292,0.0,0.0,93,0.00,,---,0.00,VWS V14.01,2013-10-05 03:54:00,
2013-10-04 23:59:00,65.1,63.0,28.02,WNW,292,0.0,0.0,93,0.00,,---,0.00,VWS V14.01,2013-10-05 03:59:00,